TimeEST,TemperatureF,Dew PointF,Humidity,Sea Level PressureIn,VisibilityMPH,Wind Direction,Wind SpeedMPH,Gust SpeedMPH,PrecipitationIn,Events,Conditions,WindDirDegrees,DateUTC
12:53 AM,66.0,64.0,93,30.06,10.0,Calm,Calm,-,N/A,,Clear,0,2013-01-16 05:53:00
1:53 AM,64.9,63.0,93,30.07,10.0,Calm,Calm,-,N/A,,Clear,0,2013-01-16 06:53:00
3:53 AM,63.0,62.1,97,30.06,8.0,Calm,Calm,-,N/A,,Clear,0,2013-01-16 08:53:00
4:53 AM,62.1,61.0,96,30.06,7.0,Calm,Calm,-,N/A,,Clear,0,2013-01-16 09:53:00
5:53 AM,62.1,61.0,96,30.06,6.0,Calm,Calm,-,N/A,,Clear,0,2013-01-16 10:53:00
6:53 AM,61.0,60.1,97,30.07,6.0,ESE,3.5,-,N/A,,Clear,110,2013-01-16 11:53:00
7:53 AM,62.1,61.0,96,30.09,6.0,ESE,3.5,-,N/A,,Clear,110,2013-01-16 12:53:00
8:53 AM,66.9,64.0,90,30.11,10.0,SE,4.6,-,N/A,,Clear,130,2013-01-16 13:53:00
9:53 AM,73.9,64.9,73,30.11,10.0,SE,4.6,-,N/A,,Clear,140,2013-01-16 14:53:00
10:53 AM,77.0,64.0,64,30.09,10.0,SSE,9.2,-,N/A,,Clear,160,2013-01-16 15:53:00
11:53 AM,79.0,61.0,54,30.07,10.0,SSW,6.9,-,N/A,,Mostly Cloudy,210,2013-01-16 16:53:00
12:53 PM,82.0,61.0,49,30.04,10.0,SSE,8.1,-,N/A,,Clear,150,2013-01-16 17:53:00
1:53 PM,82.9,55.9,39,30.02,10.0,SSE,10.4,-,N/A,,Clear,160,2013-01-16 18:53:00
2:53 PM,82.0,57.0,42,30.01,10.0,SSW,6.9,-,N/A,,Clear,210,2013-01-16 19:53:00
3:53 PM,82.0,57.0,42,30.02,10.0,Variable,5.8,-,N/A,,Clear,0,2013-01-16 20:53:00
4:53 PM,80.1,61.0,52,30.02,10.0,SW,6.9,-,N/A,,Clear,220,2013-01-16 21:53:00
5:53 PM,75.9,63.0,64,30.03,10.0,West,5.8,-,N/A,,Partly Cloudy,260,2013-01-16 22:53:00
6:53 PM,73.9,64.9,73,30.04,10.0,SW,4.6,-,N/A,,Clear,220,2013-01-16 23:53:00
7:53 PM,73.0,66.0,79,30.05,10.0,SSW,3.5,-,N/A,,Partly Cloudy,210,2013-01-17 00:53:00
8:53 PM,73.0,66.9,81,30.06,10.0,Calm,Calm,-,N/A,,Overcast,0,2013-01-17 01:53:00
9:53 PM,72.0,66.9,84,30.06,10.0,Calm,Calm,-,N/A,,Overcast,0,2013-01-17 02:53:00
10:53 PM,72.0,66.0,81,30.05,10.0,Calm,Calm,-,N/A,,Mostly Cloudy,0,2013-01-17 03:53:00
11:53 PM,70.0,64.9,84,30.04,10.0,Calm,Calm,-,N/A,,Clear,0,2013-01-17 04:53:00